Current Version              Previous Version:    01  02  03  04  05  06  07  08  09  10  11  12  13  14  15  16  17  18  19  20  21  22  23  24  25  26  27  28  29  30  
   31  32  33  34  35  36  37  38  39  40  41  42  43  44  45  46  47  48  49  50  51  52  53  54  55  56  57  58  59  60  

[Printable]
601
ASUS44 KFWD 281401
RWRTX
NORTH TEXAS HOURLY WEATHER ROUNDUP
NATIONAL WEATHER SERVICE FORT WORTH TX
800 AM CST FRI NOV 28 2014

NOTE: "FAIR" INDICATES FEW OR NO CLOUDS BELOW 12,000 FEET WITH NO
SIGNIFICANT WEATHER AND/OR OBSTRUCTIONS TO VISIBILITY.

TXZ118-119-281500-
DALLAS/FORT WORTH METROPLEX

CITY           SKY/WX    TMP DP  RH WIND       PRES   REMARKS
DFW AIRPORT    PTCLDY    45  32  60 S13       30.23F WCI  39
DALLAS LOVE    PTCLDY    45  31  58 S12       30.25F WCI  39
FTW MEACHAM    CLEAR     48  35  60 S13       30.22F
DAL-EXECUTIVE  CLEAR     46  29  51 VRB5      30.24F
FTW-ALLIANCE   CLEAR     43  33  68 S5        30.22F
FTW-SPINKS     CLEAR     48  36  61 S9        30.25F
ARLINGTON      CLEAR     46  30  53 S13       30.23F
GRAND PRAIRIE  CLEAR     45  34  65 S8        30.26
ADDISON        CLEAR     46  28  49 SE10      30.24F
MESQUITE       CLEAR     39  34  81 SE6       30.27F WCI  35
LANCASTER      CLEAR     37  30  76 CALM      30.27F
$$

TXZ091>094-102>105-117-120-121-131>134-281500-
NORTH CENTRAL TEXAS

CITY           SKY/WX    TMP DP  RH WIND       PRES   REMARKS
SHRMAN/DENISON CLEAR     44  35  68 S12       30.24S WCI  39
BRIDGEPORT     CLEAR     35  33  94 CALM      30.22S
DENTON         CLEAR     43  32  65 SE7       30.23S WCI  39
MCKINNEY       CLEAR     39  34  82 S7        30.25S WCI  34
ROCKWALL       CLEAR     43  33  68 S9G16     30.25S WCI  38
TERRELL        CLEAR     42  35  76 S6        30.28F WCI  38
WAXAHACHIE     CLEAR     41  33  72 SE6       30.27F WCI  37
$$

TXZ083>090-098>101-113>116-127>130-139>142-154-155-281500-
WESTERN NORTH TEXAS

CITY           SKY/WX    TMP DP  RH WIND       PRES   REMARKS
WICHITA FALLS  CLEAR     43  33  68 S15       30.13F WCI  36
WF-KICKAPOO    CLEAR     41  33  73 S9        30.16F WCI  35
ABILENE        CLEAR     49  41  74 S17G31    30.18F
ABILENE-DYESS  CLEAR     47  38  70 SW18      30.16S
MINERAL WELLS  CLEAR     39  32  76 SE8       30.20F WCI  33
STEPHENVILLE   CLEAR     40  33  76 S5        30.26S WCI  37
COMANCHE       CLEAR     46  37  73 S13       30.24S WCI  40
$$

TXZ143>147-156>162-174-175-281500-
CENTRAL TEXAS

CITY           SKY/WX    TMP DP  RH WIND       PRES   REMARKS
WACO           PTCLDY    46  41  82 S12       30.29F
WACO-MCGREGOR  CLEAR     46  37  71 S8        30.29F
CORSICANA      CLEAR     41  34  76 S6        30.30F WCI  37
MEXIA          CLEAR     40  34  79 S6        30.30S WCI  36
TEMPLE         PTCLDY    43  34  70 S8        30.29S WCI  38
KILLEEN        CLOUDY    46  36  68 S9        30.28F
KILLEEN-SKYLRK MOCLDY    45  32  61 S3        30.29S
FORT HOOD      CLOUDY    48  34  58 SE5       30.29S
HAMILTON       MOCLDY    48  42  79 S10       30.26F
LAMPASAS       CLOUDY    50  48  90 CALM      30.27R
$$

TXZ095>097-106>112-122>126-135>138-148>153-164>167-281500-
EAST TEXAS

CITY           SKY/WX    TMP DP  RH WIND       PRES   REMARKS
PARIS          CLEAR     36  30  80 SE7       30.29F WCI  30
SULPHUR SPRNGS CLEAR     44  33  64 S8        30.31S WCI  40
MINEOLA        CLEAR     43  34  70 SE5       30.31F
TYLER          CLEAR     42  34  73 S8        30.31S WCI  37
LONGVIEW       SUNNY     41  35  79 SE9       30.33S WCI  35
JACKSONVILLE   SUNNY     42  34  73 S12       30.33F WCI  35
NACOGDOCHES    SUNNY     39  34  81 SE5       30.35F WCI  36
LUFKIN         SUNNY     42  34  73 SE7       30.36F WCI  38
$$

SUPPLEMENTAL OBSERVATIONS (CENTRAL)

CITY           SKY/WX    TMP DP  RH WIND       PRES   REMARKS
$$

SUPPLEMENTAL OBSERVATIONS (WEST)

CITY           SKY/WX    TMP DP  RH WIND       PRES   REMARKS
$$

SUPPLEMENTAL OBSERVATIONS (EAST)

CITY           SKY/WX    TMP DP  RH WIND       PRES   REMARKS
$$

SUPPLEMENTAL OBSERVATIONS ARE A COLLECTION OF AUTOMATED INSTRUMENTS
THAT ARE MAINTAINED BY A VARIETY OF FEDERAL AND STATE AGENCIES.
CERTAIN ELEMENTS...SUCH AS HUMIDITY VALUES AND SUSTAINED WIND
SPEEDS...MAY BE APPROXIMATED.